TimeCST,TemperatureF,Dew PointF,Humidity,Sea Level PressureIn,VisibilityMPH,Wind Direction,Wind SpeedMPH,Gust SpeedMPH,PrecipitationIn,Events,Conditions,WindDirDegrees,DateUTC
12:15 AM,12.2,10.4,92,30.12,10.0,SSW,3.5,-,N/A,,Clear,200,2013-12-13 06:15:00
12:35 AM,12.2,10.4,92,30.11,10.0,Calm,Calm,-,N/A,,Clear,0,2013-12-13 06:35:00
12:55 AM,12.2,10.4,92,30.11,10.0,Calm,Calm,-,N/A,,Clear,0,2013-12-13 06:55:00
1:15 AM,10.4,8.6,92,30.10,10.0,Calm,Calm,-,N/A,,Clear,0,2013-12-13 07:15:00
1:35 AM,12.2,8.6,85,30.10,10.0,Calm,Calm,-,N/A,,Clear,0,2013-12-13 07:35:00
1:55 AM,10.4,8.6,92,30.09,10.0,Calm,Calm,-,N/A,,Clear,0,2013-12-13 07:55:00
2:15 AM,10.4,8.6,92,30.08,10.0,Calm,Calm,-,N/A,,Clear,0,2013-12-13 08:15:00
2:35 AM,12.2,10.4,92,30.08,10.0,Calm,Calm,-,N/A,,Clear,0,2013-12-13 08:35:00
2:55 AM,10.4,8.6,92,30.07,10.0,Calm,Calm,-,N/A,,Clear,0,2013-12-13 08:55:00
3:15 AM,14.0,12.2,93,30.06,10.0,SSW,5.8,-,N/A,,Clear,210,2013-12-13 09:15:00
3:35 AM,15.8,14.0,93,30.05,10.0,SSW,4.6,-,N/A,,Clear,210,2013-12-13 09:35:00
3:55 AM,15.8,12.2,86,30.05,10.0,SSW,3.5,-,N/A,,Clear,210,2013-12-13 09:55:00
4:15 AM,15.8,14.0,93,30.04,10.0,Calm,Calm,-,N/A,,Clear,0,2013-12-13 10:15:00
4:35 AM,15.8,14.0,93,30.04,10.0,Calm,Calm,-,N/A,,Clear,0,2013-12-13 10:35:00
4:55 AM,15.8,14.0,93,30.03,10.0,Calm,Calm,-,N/A,,Clear,0,2013-12-13 10:55:00
5:15 AM,17.6,15.8,93,30.02,10.0,Calm,Calm,-,N/A,,Clear,0,2013-12-13 11:15:00
5:35 AM,12.2,10.4,92,30.01,10.0,Calm,Calm,-,N/A,,Clear,0,2013-12-13 11:35:00
5:55 AM,8.6,6.8,92,30.01,10.0,Calm,Calm,-,N/A,,Clear,0,2013-12-13 11:55:00
6:15 AM,8.6,6.8,92,30.01,10.0,Calm,Calm,-,N/A,,Clear,0,2013-12-13 12:15:00
6:35 AM,8.6,6.8,92,30.00,10.0,Calm,Calm,-,N/A,,Clear,0,2013-12-13 12:35:00
6:55 AM,12.2,10.4,92,30.00,10.0,Calm,Calm,-,N/A,,Clear,0,2013-12-13 12:55:00
7:15 AM,8.6,6.8,92,30.01,10.0,SSW,3.5,-,N/A,,Clear,210,2013-12-13 13:15:00
7:35 AM,10.4,8.6,92,30.00,9.0,Calm,Calm,-,N/A,,Clear,0,2013-12-13 13:35:00
7:55 AM,10.4,8.6,92,30.00,9.0,Calm,Calm,-,N/A,,Clear,0,2013-12-13 13:55:00
8:15 AM,10.4,8.6,92,30.01,7.0,Calm,Calm,-,N/A,,Clear,0,2013-12-13 14:15:00
8:35 AM,10.4,8.6,92,30.00,7.0,Calm,Calm,-,N/A,,Clear,0,2013-12-13 14:35:00
8:55 AM,12.2,10.4,92,30.00,8.0,Calm,Calm,-,N/A,,Clear,0,2013-12-13 14:55:00
9:15 AM,14.0,12.2,93,30.00,8.0,Calm,Calm,-,N/A,,Clear,0,2013-12-13 15:15:00
9:35 AM,15.8,14.0,93,30.00,7.0,Calm,Calm,-,N/A,,Clear,0,2013-12-13 15:35:00
9:55 AM,19.4,17.6,93,29.99,6.0,Calm,Calm,-,N/A,,Clear,0,2013-12-13 15:55:00
10:15 AM,21.2,19.4,93,29.99,5.0,Calm,Calm,-,N/A,,Clear,0,2013-12-13 16:15:00
10:35 AM,23.0,19.4,86,29.98,6.0,Calm,Calm,-,N/A,,Clear,0,2013-12-13 16:35:00
10:55 AM,24.8,21.2,86,29.98,6.0,Calm,Calm,-,N/A,,Clear,0,2013-12-13 16:55:00
11:15 AM,24.8,23.0,93,29.97,6.0,Calm,Calm,-,N/A,,Clear,0,2013-12-13 17:15:00
11:35 AM,26.6,23.0,86,29.96,6.0,Calm,Calm,-,N/A,,Clear,0,2013-12-13 17:35:00
11:55 AM,28.4,24.8,86,29.94,7.0,Calm,Calm,-,N/A,,Clear,0,2013-12-13 17:55:00
12:15 PM,30.2,24.8,80,29.93,7.0,Calm,Calm,-,N/A,,Clear,0,2013-12-13 18:15:00
12:35 PM,32.0,26.6,80,29.92,8.0,North,3.5,-,N/A,,Mostly Cloudy,350,2013-12-13 18:35:00
12:55 PM,32.0,26.6,80,29.92,8.0,Calm,Calm,-,N/A,,Mostly Cloudy,0,2013-12-13 18:55:00
1:15 PM,33.8,26.6,75,29.91,8.0,NNE,4.6,-,N/A,,Partly Cloudy,30,2013-12-13 19:15:00
1:35 PM,35.6,28.4,75,29.90,9.0,East,4.6,-,N/A,,Partly Cloudy,100,2013-12-13 19:35:00
1:55 PM,35.6,28.4,75,29.91,9.0,Calm,Calm,-,N/A,,Scattered Clouds,0,2013-12-13 19:55:00
2:15 PM,35.6,28.4,75,29.90,9.0,ESE,5.8,-,N/A,,Overcast,120,2013-12-13 20:15:00
2:35 PM,35.6,28.4,75,29.90,9.0,Calm,Calm,-,N/A,,Overcast,0,2013-12-13 20:35:00
2:55 PM,35.6,28.4,75,29.89,9.0,East,5.8,-,N/A,,Mostly Cloudy,100,2013-12-13 20:55:00
3:15 PM,33.8,28.4,81,29.89,8.0,ESE,4.6,-,N/A,,Mostly Cloudy,110,2013-12-13 21:15:00
3:35 PM,33.8,28.4,81,29.90,8.0,East,4.6,-,N/A,,Mostly Cloudy,80,2013-12-13 21:35:00
3:55 PM,33.8,28.4,81,29.91,7.0,Variable,5.8,-,N/A,,Overcast,0,2013-12-13 21:55:00
4:15 PM,33.8,28.4,81,29.92,7.0,East,5.8,-,N/A,,Overcast,90,2013-12-13 22:15:00
4:35 PM,33.8,28.4,81,29.92,7.0,East,5.8,-,N/A,,Overcast,90,2013-12-13 22:35:00
4:55 PM,33.8,28.4,81,29.92,7.0,ENE,5.8,-,N/A,,Overcast,60,2013-12-13 22:55:00
5:15 PM,33.8,28.4,81,29.93,7.0,NE,8.1,-,N/A,,Overcast,50,2013-12-13 23:15:00
5:35 PM,33.8,28.4,81,29.93,8.0,NE,5.8,-,N/A,,Overcast,50,2013-12-13 23:35:00
5:55 PM,32.0,28.4,87,29.94,8.0,NE,6.9,-,N/A,,Overcast,40,2013-12-13 23:55:00
6:15 PM,32.0,28.4,87,29.94,8.0,NE,6.9,-,N/A,,Overcast,40,2013-12-14 00:15:00
6:35 PM,32.0,28.4,87,29.94,8.0,NNE,9.2,-,N/A,,Overcast,30,2013-12-14 00:35:00
6:55 PM,32.0,28.4,87,29.95,8.0,NNE,11.5,-,N/A,,Overcast,20,2013-12-14 00:55:00
7:15 PM,32.0,26.6,80,29.96,8.0,NNE,13.8,-,N/A,,Overcast,30,2013-12-14 01:15:00
7:35 PM,30.2,26.6,86,29.96,8.0,NNE,11.5,-,N/A,,Overcast,30,2013-12-14 01:35:00
7:55 PM,30.2,26.6,86,29.97,8.0,NNE,13.8,-,N/A,,Overcast,30,2013-12-14 01:55:00
8:15 PM,30.2,26.6,86,29.98,8.0,NNE,12.7,18.4,N/A,,Overcast,20,2013-12-14 02:15:00
8:35 PM,30.2,26.6,86,29.99,7.0,NNE,12.7,-,N/A,,Overcast,20,2013-12-14 02:35:00
8:55 PM,30.2,26.6,86,29.99,7.0,NNE,13.8,-,N/A,,Overcast,20,2013-12-14 02:55:00
9:15 PM,30.2,26.6,86,29.99,6.0,North,12.7,-,N/A,,Overcast,10,2013-12-14 03:15:00
9:35 PM,28.4,24.8,86,29.99,6.0,North,13.8,-,N/A,,Overcast,10,2013-12-14 03:35:00
9:55 PM,28.4,24.8,86,30.00,6.0,NNE,11.5,-,N/A,,Overcast,20,2013-12-14 03:55:00
10:15 PM,28.4,24.8,86,30.00,7.0,NNE,11.5,19.6,N/A,,Overcast,20,2013-12-14 04:15:00
10:35 PM,26.6,24.8,93,30.00,6.0,North,15.0,-,N/A,,Overcast,10,2013-12-14 04:35:00
10:55 PM,26.6,23.0,86,30.01,6.0,North,11.5,-,N/A,,Overcast,10,2013-12-14 04:55:00
11:15 PM,26.6,23.0,86,30.02,6.0,NNE,13.8,-,N/A,,Overcast,20,2013-12-14 05:15:00
11:35 PM,26.6,23.0,86,30.02,6.0,NNE,17.3,-,N/A,,Overcast,20,2013-12-14 05:35:00
11:55 PM,26.6,23.0,86,30.03,6.0,North,15.0,-,N/A,,Overcast,10,2013-12-14 05:55:00